decoist.com alexa rank chart, decoist.com alexa rank daily changes

decoist.com alexa rank chart, decoist.com alexa rank daily changes

decoist.com
Actual rank:
47 369

RANK HISTORY

Date Rank Diff
2016/12/05 47 369 -25
2016/12/04 47 394 +824
2016/12/02 46 570 -34
2016/12/01 46 604 -117
2016/11/30 46 721 +191
2016/11/29 46 530 -495
2016/11/28 47 025 +157
2016/11/27 46 868 +697
2016/11/26 46 171 +857
2016/11/25 45 314 +729
2016/11/24 44 585 +432
2016/11/23 44 153 +3 234
2016/11/19 40 919 +502
2016/11/18 40 417 +686
2016/11/17 39 731 +465
2016/11/16 39 266 +482
2016/11/15 38 784 +67
2016/11/14 38 717 +943
2016/11/13 37 774 +42
2016/11/12 37 732 +517
2016/11/11 37 215 +811
2016/11/10 36 404 +971
2016/11/09 35 433 +610
2016/11/08 34 823 +779
2016/11/07 34 044 +18
2016/11/06 34 026 +77
2016/11/05 33 949 +275
2016/11/04 33 674 +377
2016/11/03 33 297 -173
2016/11/02 33 470 -160
2016/11/01 33 630 +260
2016/10/31 33 370 +176
2016/10/30 33 194 +376
2016/10/29 32 818 -220
2016/10/28 33 038 -19
2016/10/27 33 057 +388
2016/10/26 32 669 -385
2016/10/25 33 054 -159
2016/10/24 33 213 -8
2016/10/23 33 221 -1 296
2016/10/22 34 517 -56
2016/10/21 34 573 +521
2016/10/20 34 052 -114
2016/10/19 34 166 +60
2016/10/18 34 106 -369
2016/10/17 34 475 -381
2016/10/16 34 856 -328
2016/10/15 35 184 -374
2016/10/14 35 558 +37
2016/10/13 35 521 +367
2016/10/12 35 154 +434
2016/10/11 34 720 -167
2016/10/10 34 887 -410
2016/10/09 35 297 +589
2016/10/08 34 708 -2 388
2016/10/07 37 096 +2 621
2016/10/06 34 475

WIDGET FOR YOUR SITE

DOMAINS WITH THE NEAREST RANK

Domain Rank
scarlet.be 47 364
rdveikals.lv 47 365
livelesson.com 47 366
sync-video.com 47 367
abcbourse.com 47 368
decoist.com 47 369
temita.jp 47 370
tafeio.tv 47 371
istockmall.com 47 372
hotrod.com 47 373
privatestream.tv 47 374

DOMAINS WITH THE NEAREST RANK BY TLD .com

Domain Rank
watchmojo.com 47 362
bpm-power.com 47 363
livelesson.com 47 366
sync-video.com 47 367
abcbourse.com 47 368
decoist.com 47 369
istockmall.com 47 372
hotrod.com 47 373
trabajos.com 47 375
aabacosmallbusiness.com 47 377
rticcoolers.com 47 379